User: anonymous   Login
Location: Leeds
(37.2390°N, 113.3580°W)
Time: 00:08:40
(UTC-06:00)
Language:

SL-08 RB Rocket - Orbit

View from above orbital plane
View from above orbital plane
View from above satellite
View from above satellite

Ground track
Ground track

The orbit data is extracted from the following two-line orbital elements,

1 26387U 00033D   16121.22903663  .00000157  00000-0  35699-4 0  9993
2 26387  98.0210 188.7859 0026028 206.0957 220.5541 14.68136871847284
Epoch (UTC): 30 April 2016 05:29:48
Eccentricity: 0.0026028
inclination: 98.0210°
perigee height: 648 km
apogee height: 685 km
right ascension of ascending node: 188.7859°
argument of perigee: 206.0957°
revolutions per day: 14.68136871
mean anomaly at epoch: 220.5541°
orbit number at epoch: 84728

The dashed part of the orbit path shows where the satellite is in the earth's shadow,  

DLR